FWI67Z MDPC-LFPO

Flight info

Callsign FWI67Z
Flight time N/A
Altitude 37000
Route CHUMA2W CHUMA Y315 KEEKA/M084F370 DCT SIFEN/M084F390 DCT 35N050W 41N040W 44N030W 46N020W 47N010W DCT SEPAL DCT LAPEX/N0481F400 DCT AKEMO DCT TERPO DCT ANG/N0479F270 UN482 DEKJA/N0489F280 UN482 NIMER DCT CAD
Aircraft A359/H-SDE2E3GHIJ3J4J5LM1ORWXY/LB1D1

Departure

Time 2026-04-27 05:52
Airport Punta Cana International Airport (MDPC)

Arrival

Time N/A
Airport Paris-Orly Airport (LFPO)
Time Latitude Longitude Altitude Speed Heading
2026-04-27 05:28 18.56419 -68.36155 58 ft 0 kts 176°
2026-04-27 05:39 18.56428 -68.36156 58 ft 4 kts 180°
2026-04-27 05:39 18.56454 -68.36153 49 ft 4 kts 201°
2026-04-27 05:39 18.56476 -68.36139 49 ft 4 kts 231°
2026-04-27 05:40 18.56489 -68.36115 49 ft 4 kts 257°
2026-04-27 05:40 18.56493 -68.36090 49 ft 1 kts 263°
2026-04-27 05:44 18.56492 -68.36096 58 ft 4 kts 263°
2026-04-27 05:44 18.56486 -68.36151 58 ft 9 kts 263°
2026-04-27 05:44 18.56479 -68.36224 57 ft 11 kts 265°
2026-04-27 05:44 18.56472 -68.36307 52 ft 12 kts 265°
2026-04-27 05:45 18.56466 -68.36401 56 ft 14 kts 266°
2026-04-27 05:45 18.56458 -68.36505 52 ft 15 kts 264°
2026-04-27 05:45 18.56472 -68.36603 49 ft 13 kts 302°
2026-04-27 05:45 18.56520 -68.36686 49 ft 14 kts 290°
2026-04-27 05:46 18.56524 -68.36790 56 ft 15 kts 265°
2026-04-27 05:46 18.56514 -68.36905 54 ft 16 kts 265°
2026-04-27 05:46 18.56504 -68.37027 49 ft 17 kts 265°
2026-04-27 05:46 18.56493 -68.37155 51 ft 16 kts 265°
2026-04-27 05:47 18.56482 -68.37278 56 ft 17 kts 265°
2026-04-27 05:47 18.56471 -68.37410 51 ft 19 kts 265°
2026-04-27 05:47 18.56457 -68.37548 51 ft 19 kts 264°
2026-04-27 05:47 18.56447 -68.37670 49 ft 15 kts 265°
2026-04-27 05:48 18.56451 -68.37753 49 ft 9 kts 293°
2026-04-27 05:48 18.56497 -68.37786 52 ft 9 kts 350°
2026-04-27 05:48 18.56577 -68.37796 48 ft 17 kts 354°
2026-04-27 05:48 18.56687 -68.37833 50 ft 16 kts 314°
2026-04-27 05:49 18.56736 -68.37934 47 ft 16 kts 294°
2026-04-27 05:49 18.56782 -68.38041 50 ft 16 kts 294°
2026-04-27 05:49 18.56829 -68.38150 52 ft 16 kts 294°
2026-04-27 05:49 18.56888 -68.38244 53 ft 14 kts 324°
2026-04-27 05:50 18.56980 -68.38278 52 ft 14 kts 347°
2026-04-27 05:50 18.57049 -68.38237 53 ft 12 kts 64°
2026-04-27 05:50 18.57059 -68.38207 57 ft 0 kts 72°
2026-04-27 05:51 18.57063 -68.38194 60 ft 12 kts 72°
2026-04-27 05:51 18.57149 -68.37883 55 ft 78 kts 74°
2026-04-27 05:51 18.57357 -68.37129 51 ft 135 kts 73°
2026-04-27 05:52 18.57675 -68.36034 292 ft 159 kts 76°
2026-04-27 05:52 18.57995 -68.35001 1045 ft 146 kts 79°
2026-04-27 05:52 18.58303 -68.33920 1270 ft 163 kts 80°
2026-04-27 05:52 18.58616 -68.32693 1480 ft 182 kts 79°
2026-04-27 05:53 18.59149 -68.31398 1676 ft 207 kts 56°
2026-04-27 05:53 18.60434 -68.30543 1834 ft 237 kts 13°
2026-04-27 05:53 18.62152 -68.30576 2087 ft 258 kts 351°
2026-04-27 05:53 18.63965 -68.30909 2555 ft 269 kts 349°
2026-04-27 05:54 18.65826 -68.31245 3164 ft 273 kts 350°
2026-04-27 05:54 18.67727 -68.31555 3775 ft 277 kts 351°
2026-04-27 05:54 18.69644 -68.31751 4475 ft 277 kts 360°
2026-04-27 05:54 18.71552 -68.31404 5116 ft 281 kts 18°
2026-04-27 05:55 18.73349 -68.30613 5708 ft 285 kts 26°
2026-04-27 05:55 18.75113 -68.29588 6368 ft 287 kts 31°
2026-04-27 05:55 18.76798 -68.28473 6917 ft 292 kts 33°
2026-04-27 05:55 18.78504 -68.27290 7595 ft 293 kts 33°
2026-04-27 05:56 18.80225 -68.26092 8232 ft 298 kts 33°
2026-04-27 05:56 18.81973 -68.24892 8911 ft 302 kts 32°
2026-04-27 05:56 18.83751 -68.23693 9583 ft 306 kts 32°
2026-04-27 05:56 18.85565 -68.22486 10199 ft 312 kts 31°
2026-04-27 05:57 18.87458 -68.21239 10510 ft 329 kts 31°
2026-04-27 05:57 18.89454 -68.19931 10771 ft 346 kts 31°
2026-04-27 05:57 18.91548 -68.18559 11039 ft 362 kts 31°
2026-04-27 05:57 18.93729 -68.17129 11285 ft 376 kts 31°
2026-04-27 05:58 18.95997 -68.15639 11531 ft 390 kts 31°
2026-04-27 05:58 18.98324 -68.14109 11893 ft 397 kts 31°
2026-04-27 05:58 19.00683 -68.12555 12363 ft 402 kts 31°
2026-04-27 05:58 19.03037 -68.11003 12835 ft 406 kts 30°
2026-04-27 05:59 19.05445 -68.09415 13324 ft 409 kts 30°
2026-04-27 05:59 19.07870 -68.07815 13798 ft 412 kts 30°
2026-04-27 05:59 19.10317 -68.06201 14224 ft 415 kts 30°
2026-04-27 05:59 19.12779 -68.04577 14623 ft 419 kts 30°
2026-04-27 06:00 19.17748 -68.01297 15517 ft 423 kts 30°
2026-04-27 06:00 19.20257 -67.99640 15955 ft 426 kts 30°
2026-04-27 06:00 19.22773 -67.97978 16385 ft 428 kts 30°
2026-04-27 06:01 19.25304 -67.96305 16827 ft 430 kts 30°
2026-04-27 06:01 19.27854 -67.94619 17244 ft 433 kts 30°
2026-04-27 06:01 19.29549 -67.93498 17525 ft 434 kts 30°
2026-04-27 06:01 19.32118 -67.91799 17944 ft 437 kts 30°
2026-04-27 06:02 19.34708 -67.90085 18353 ft 439 kts 30°
2026-04-27 06:02 19.37311 -67.88362 18680 ft 442 kts 30°
2026-04-27 06:02 19.39934 -67.86625 18999 ft 446 kts 30°
2026-04-27 06:02 19.42577 -67.84875 19292 ft 450 kts 30°
2026-04-27 06:03 19.45239 -67.83111 19626 ft 453 kts 30°
2026-04-27 06:03 19.47927 -67.81328 19965 ft 456 kts 30°
2026-04-27 06:03 19.50624 -67.79539 20302 ft 459 kts 30°
2026-04-27 06:03 19.53347 -67.77732 20642 ft 462 kts 30°
2026-04-27 06:04 19.56083 -67.75916 20988 ft 465 kts 30°
2026-04-27 06:04 19.58836 -67.74088 21324 ft 469 kts 30°
2026-04-27 06:04 19.61610 -67.72245 21667 ft 472 kts 30°
2026-04-27 06:04 19.64366 -67.70413 22007 ft 475 kts 30°
2026-04-27 06:05 19.67207 -67.68523 22349 ft 478 kts 30°
2026-04-27 06:05 19.69998 -67.66667 22674 ft 482 kts 30°
2026-04-27 06:05 19.72850 -67.64769 23008 ft 485 kts 30°
2026-04-27 06:05 19.75714 -67.62862 23359 ft 488 kts 30°
2026-04-27 06:06 19.78601 -67.60939 23659 ft 491 kts 30°
2026-04-27 06:06 19.81509 -67.59001 23946 ft 494 kts 30°
2026-04-27 06:06 19.84425 -67.57057 24244 ft 496 kts 29°
2026-04-27 06:06 19.87355 -67.55103 24555 ft 499 kts 29°
2026-04-27 06:07 19.90300 -67.53137 24867 ft 501 kts 29°
2026-04-27 06:07 19.93258 -67.51163 25195 ft 504 kts 29°
2026-04-27 06:07 19.96244 -67.49169 25530 ft 507 kts 29°
2026-04-27 06:07 19.99169 -67.47046 25874 ft 512 kts 36°
2026-04-27 06:08 20.01823 -67.44484 26209 ft 518 kts 43°
2026-04-27 06:08 20.04290 -67.41749 26533 ft 521 kts 45°
2026-04-27 06:08 20.06770 -67.38843 26881 ft 525 kts 46°
2026-04-27 06:08 20.09162 -67.35962 27197 ft 528 kts 46°
2026-04-27 06:09 20.11588 -67.33008 27532 ft 531 kts 46°
2026-04-27 06:09 20.14021 -67.30043 27855 ft 534 kts 46°
2026-04-27 06:09 20.16476 -67.27062 28183 ft 537 kts 46°
2026-04-27 06:09 20.18949 -67.24069 28493 ft 540 kts 46°
2026-04-27 06:10 20.21438 -67.21066 28801 ft 542 kts 46°
2026-04-27 06:10 20.23942 -67.18049 29146 ft 545 kts 45°
2026-04-27 06:10 20.26460 -67.15015 29355 ft 549 kts 45°
2026-04-27 06:10 20.28995 -67.11962 29622 ft 552 kts 45°
2026-04-27 06:11 20.31548 -67.08884 29911 ft 554 kts 45°
2026-04-27 06:11 20.34106 -67.05799 30160 ft 557 kts 45°
2026-04-27 06:11 20.36674 -67.02698 30374 ft 559 kts 45°
2026-04-27 06:11 20.39222 -66.99620 30596 ft 561 kts 45°
2026-04-27 06:12 20.41809 -66.96492 30849 ft 563 kts 45°
2026-04-27 06:12 20.44396 -66.93362 31143 ft 562 kts 46°
2026-04-27 06:12 20.46983 -66.90231 31460 ft 562 kts 46°
2026-04-27 06:12 20.49569 -66.87099 31772 ft 561 kts 46°
2026-04-27 06:13 20.52146 -66.83976 32057 ft 562 kts 46°
2026-04-27 06:13 20.54734 -66.80840 32277 ft 564 kts 46°
2026-04-27 06:13 20.57323 -66.77700 32563 ft 563 kts 46°
2026-04-27 06:13 20.59910 -66.74561 32871 ft 563 kts 46°
2026-04-27 06:14 20.62497 -66.71419 33152 ft 563 kts 46°
2026-04-27 06:14 20.65086 -66.68273 33415 ft 563 kts 46°
2026-04-27 06:14 20.67670 -66.65132 33685 ft 563 kts 46°
2026-04-27 06:14 20.70256 -66.61987 33957 ft 563 kts 46°
2026-04-27 06:15 20.72844 -66.58839 34195 ft 563 kts 46°
2026-04-27 06:15 20.75430 -66.55689 34413 ft 563 kts 46°
2026-04-27 06:15 20.78007 -66.52549 34683 ft 563 kts 46°
2026-04-27 06:15 20.80591 -66.49400 34842 ft 564 kts 46°
2026-04-27 06:16 20.83180 -66.46243 35041 ft 564 kts 46°
2026-04-27 06:16 20.85767 -66.43087 35271 ft 564 kts 46°
2026-04-27 06:16 20.88346 -66.39936 35476 ft 564 kts 46°
2026-04-27 06:16 20.90933 -66.36776 35679 ft 564 kts 46°
2026-04-27 06:17 20.93482 -66.33660 35875 ft 564 kts 46°
2026-04-27 06:17 20.96064 -66.30502 36068 ft 564 kts 46°
2026-04-27 06:17 20.98647 -66.27341 36267 ft 564 kts 46°
2026-04-27 06:17 21.01230 -66.24179 36442 ft 564 kts 46°
2026-04-27 06:18 21.03811 -66.21015 36652 ft 564 kts 46°
2026-04-27 06:18 21.06400 -66.17842 36743 ft 566 kts 46°
2026-04-27 06:18 21.08987 -66.14670 36919 ft 566 kts 46°
2026-04-27 06:18 21.11577 -66.11491 36988 ft 568 kts 46°